Station 46075 (LLNR 1197) - SHUMAGIN ISLANDS - 85NM South of Sand Point, AK Image indicating link to RSS feed of recent meteorological observations for station 46075


Conditions at 46075 as of
(7:20 pm AKDT on 07/15/2024)
0320 GMT on 07/16/2024:
     

Click on the graph icon in the table below to see a time series plot of the last five days of that observation.

5-day plot - Wind Speed Wind Speed (WSPD): 15.5 kts
5-day plot - Wind Gust Wind Gust (GST): 19.4 kts
5-day plot - Wave Height Wave Height (WVHT): 5.2 ft
5-day plot - Dominant Wave Period Dominant Wave Period (DPD): 6 sec
5-day plot - Average Wave Period Average Period (APD): 5.4 sec
5-day plot - Mean Wave Direction Mean Wave Direction (MWD):WSW ( 256 deg true )
5-day plot - Atmospheric Pressure Atmospheric Pressure (PRES):29.93 in
5-day plot - Water Temperature Water Temperature (WTMP): 50.7 °F
5-day plot - Wind Speed at 10 Meters Wind Speed at 10 meters (WSPD10M): 15.5 kts
5-day plot - Wind Speed at 20 Meters Wind Speed at 20 meters (WSPD20M): 17.5 kts
5-day plot -  Wind Speed, Wind Gust and Atmospheric Pressure Combined plot of Wind Speed, Gust, and Air Pressure
Supplemental Measurements
Highest 1-minute Wind Speed
Time (AKDT)5-day plot - 1-Minute Wind Speed WSPD 5-day plot - 1-Minute Wind Direction WDIR
7:18 pm 15.5 kts-
Previous observations
TIME
(AKDT)
5-day plot - Wind Direction
WDIR
 
5-day plot - Wind Speed
WSPD
kts
5-day plot - Wind Gust
GST
kts
5-day plot - Wave Height
WVHT
ft
5-day plot - Dominant Wave Period
DPD
sec
5-day plot - Average Wave Period
APD
sec
5-day plot - Mean Wave Direction
MWD
 
5-day plot - Atmospheric Pressure
PRES
in
5-day plot - Pressure Tendency
PTDY
in
5-day plot - Air Temperature
ATMP
°F
5-day plot - Water Temperature
WTMP
°F
5-day plot - Dew Point
DEWP
°F
5-day plot - Salinity
SAL
psu
5-day plot - Visibility
VIS
nmi
5-day plot - Tide (above MLLW)
TIDE
ft
2024-07-15 07:10 pm- 13.6 19.4 5.2-5.4WSW29.93-- 50.7----
2024-07-15 07:00 pm- 13.6 17.5----29.93+0.01- 50.5----
2024-07-15 06:50 pm- 15.5 19.4 5.2 65.4WSW29.93-- 50.7----
2024-07-15 06:40 pm- 15.5 19.4 5.2-5.4WSW29.93-- 50.7----
2024-07-15 06:30 pm- 15.5 21.4----29.92-- 50.7----
2024-07-15 06:20 pm- 15.5 19.4 5.2 75.6WSW29.92-- 50.7----
2024-07-15 06:10 pm- 15.5 21.4 5.2-5.6WSW29.92-- 50.7----
2024-07-15 06:00 pm- 15.5 19.4----29.92+0.01- 50.7----
2024-07-15 05:50 pm- 15.5 19.4 4.9 55.4WSW29.92-- 50.7----
2024-07-15 05:40 pm- 15.5 19.4 4.9-5.4WSW29.92-- 50.7----
2024-07-15 05:30 pm- 15.5 19.4----29.92-- 50.7----
2024-07-15 05:20 pm- 15.5 17.5 4.9 65.5WSW29.92-- 50.5----
2024-07-15 05:10 pm- 15.5 19.4 4.9-5.5WSW29.92-- 50.5----
2024-07-15 05:00 pm- 15.5 17.5----29.92+0.01- 50.2----
2024-07-15 04:50 pm- 15.5 19.4 4.9 105.5WSW29.92-- 50.2----
2024-07-15 04:40 pm- 13.6 17.5 4.9-5.5WSW29.92-- 50.0----
2024-07-15 04:30 pm- 13.6 17.5----29.92-- 50.0----
2024-07-15 04:20 pm- 15.5 19.4 4.9 65.2WSW29.91-- 50.0----
2024-07-15 04:10 pm- 15.5 19.4 4.9-5.2WSW29.91-- 50.0----
2024-07-15 04:00 pm- 13.6 19.4----29.91+0.01- 50.0----
2024-07-15 03:50 pm- 13.6 17.5 4.9 75.4WSW29.91-- 50.0----
2024-07-15 03:40 pm- 13.6 17.5----29.91-- 50.0----
2024-07-15 03:20 pm- 15.5 19.4 4.9 75.5WSW29.91-- 50.0----
2024-07-15 03:10 pm- 13.6 17.5 4.9-5.5WSW29.91-- 50.0----
2024-07-15 03:00 pm- 13.6 17.5----29.91+0.00- 50.0----
2024-07-15 02:50 pm- 13.6 15.5 4.9 85.6WSW29.91-- 50.0----
2024-07-15 02:40 pm- 13.6 15.5----29.91-- 50.0----
2024-07-15 02:30 pm- 13.6 17.5----29.91-- 50.0----
2024-07-15 02:20 pm- 15.5 17.5 5.2 85.7 W29.91-- 50.0----
2024-07-15 02:10 pm- 13.6 17.5 5.2-5.7 W29.91-- 50.0----
2024-07-15 02:00 pm- 13.6 19.4----29.91+0.01- 50.0----
2024-07-15 01:50 pm- 13.6 17.5 5.6 75.9 W29.91-- 50.0----
2024-07-15 01:40 pm- 13.6 17.5 5.6-5.9 W29.91-- 50.0----
2024-07-15 01:30 pm- 13.6 17.5----29.91-- 50.0----
2024-07-15 01:20 pm- 13.6 15.5 5.6 86.2 W29.90-- 50.0----
2024-07-15 01:10 pm- 11.7 15.5 5.6-6.2 W29.90-- 50.0----
2024-07-15 01:00 pm- 13.6 15.5----29.90+0.00- 50.0----
2024-07-15 12:50 pm- 13.6 15.5 5.9 106.1WSW29.90-- 50.0----
2024-07-15 12:40 pm- 11.7 15.5 5.9-6.1WSW29.90-- 50.0----
2024-07-15 12:30 pm- 11.7 15.5----29.90-- 50.0----
2024-07-15 12:20 pm- 11.7 15.5 5.9 106.1WSW29.91-- 50.0----
2024-07-15 12:10 pm- 9.7 13.6 5.9-6.1WSW29.91-- 50.0----
2024-07-15 12:00 pm- 9.7 13.6----29.91+0.02- 50.0----
2024-07-15 11:50 am- 11.7 13.6 5.9 76.1WSW29.91-- 50.0----
2024-07-15 11:40 am- 11.7 15.5 5.9-6.1WSW29.91-- 50.0----
2024-07-15 11:30 am- 11.7 13.6----29.91-- 50.0----
2024-07-15 11:20 am- 11.7 15.5 6.2 106.4WSW29.90-- 50.0----
2024-07-15 11:10 am- 13.6 15.5 6.2-6.4WSW29.90-- 50.0----
2024-07-15 11:00 am- 13.6 17.5----29.90+0.02- 50.0----
2024-07-15 10:50 am- 13.6 17.5 6.2 106.4WSW29.90-- 50.0----
2024-07-15 10:40 am- 15.5 17.5----29.90-- 50.0----
2024-07-15 10:30 am- 13.6 17.5----29.89-- 50.0----
2024-07-15 10:20 am- 13.6 17.5 6.2 106.4WSW29.90-- 50.0----
2024-07-15 10:10 am- 15.5 17.5 6.2-6.4WSW29.90-- 50.0----
2024-07-15 10:00 am- 13.6 17.5----29.90+0.02- 50.0----
2024-07-15 09:50 am- 13.6 19.4 6.2 86.3 W29.90-- 50.0----
2024-07-15 09:40 am- 11.7 15.5----29.90-- 50.0----
2024-07-15 09:30 am- 15.5 19.4----29.89-- 50.0----
2024-07-15 09:20 am- 15.5 19.4 6.2 86.5WSW29.89-- 50.0----
2024-07-15 09:10 am- 15.5 19.4 6.2-6.5WSW29.89-- 50.0----
2024-07-15 09:00 am- 13.6 19.4----29.88+0.01- 50.0----
2024-07-15 08:50 am- 13.6 17.5 5.9 116.4WSW29.88-- 50.0----
2024-07-15 08:40 am- 13.6 17.5 5.9-6.4WSW29.89-- 50.0----
2024-07-15 08:30 am- 13.6 17.5----29.89-- 50.0----
2024-07-15 08:20 am- 13.6 17.5 6.2 106.7WSW29.88-- 50.0----
2024-07-15 08:10 am- 13.6 15.5 6.2-6.7WSW29.88-- 50.0----
2024-07-15 08:00 am- 11.7 15.5----29.88+0.01- 50.0----
2024-07-15 07:50 am- 11.7 15.5 6.2 86.3WSW29.88-- 50.0----
2024-07-15 07:40 am- 11.7 15.5----29.88-- 50.0----
2024-07-15 07:30 am- 11.7 15.5----29.88-- 50.0----
2024-07-15 07:20 am- 11.7 15.5 6.2 96.5WSW29.88-- 50.0----
2024-07-15 07:10 am- 11.7 15.5 6.2-6.5WSW29.88-- 50.0----
2024-07-15 07:00 am- 11.7 15.5----29.88+0.01- 50.0----
2024-07-15 06:50 am- 11.7 15.5 5.9 106.5WSW29.88-- 50.0----
2024-07-15 06:40 am- 11.7 15.5 5.9-6.5WSW29.88-- 50.0----
2024-07-15 06:30 am- 11.7 13.6----29.88-- 50.0----
2024-07-15 06:20 am- 11.7 15.5 5.6 86.4 W29.88-- 50.0----
2024-07-15 06:10 am- 11.7 13.6 5.6-6.4 W29.88-- 50.0----
2024-07-15 06:00 am- 11.7 13.6----29.87+0.00- 50.0----
2024-07-15 05:50 am- 11.7 13.6 6.2 116.4 W29.87-- 50.0----
2024-07-15 05:40 am- 11.7 15.5 6.2-6.4 W29.87-- 50.0----
2024-07-15 05:30 am- 11.7 15.5----29.88-- 50.0----
2024-07-15 05:20 am- 13.6 15.5 6.6 86.4WSW29.87-- 50.0----
2024-07-15 05:10 am- 13.6 17.5 6.6-6.4WSW29.87-- 50.0----
2024-07-15 05:00 am- 13.6 17.5----29.87-0.01- 50.0----
2024-07-15 04:50 am- 15.5 17.5 6.2 76.3 W29.87-- 50.0----
2024-07-15 04:40 am- 15.5 17.5----29.87-- 50.0----
2024-07-15 04:30 am- 15.5 19.4----29.87-- 50.0----
2024-07-15 04:20 am- 15.5 19.4 6.9 76.4WSW29.88-- 50.0----
2024-07-15 04:10 am- 15.5 19.4 6.9-6.4WSW29.87-- 50.0----
2024-07-15 04:00 am- 15.5 19.4----29.87-0.01- 50.0----
2024-07-15 03:50 am- 15.5 17.5 6.2 86.3WSW29.88-- 50.0----
2024-07-15 03:40 am- 13.6 17.5----29.88-- 50.0----
2024-07-15 03:30 am- 13.6 17.5----29.88-- 50.0----
2024-07-15 03:20 am- 15.5 17.5 7.2 86.5WSW29.88-- 50.0----
2024-07-15 03:10 am- 13.6 17.5 7.2-6.5WSW29.88-- 50.0----
2024-07-15 03:00 am- 13.6 17.5----29.88-0.01- 50.0----
2024-07-15 02:50 am- 13.6 15.5 6.9 86.4WSW29.88-- 50.0----
2024-07-15 02:40 am- 13.6 15.5 6.9-6.4WSW29.88-- 50.0----
2024-07-15 02:30 am- 11.7 15.5----29.88-- 50.0----
2024-07-15 02:20 am- 13.6 17.5 6.9 86.4 W29.88-- 50.0----
2024-07-15 02:10 am- 13.6 17.5 6.9-6.4 W29.88-- 50.0----
2024-07-15 02:00 am- 11.7 17.5----29.89+0.00- 50.0----
2024-07-15 01:50 am- 13.6 15.5 7.2 76.6WSW29.89-- 49.8----
2024-07-15 01:40 am- 11.7 15.5 7.2-6.6WSW29.89-- 49.8----
2024-07-15 01:30 am- 11.7 15.5----29.89-- 49.8----
2024-07-15 01:20 am- 9.7 13.6 7.9 106.9WSW29.89-- 49.8----
2024-07-15 01:10 am- 11.7 15.5 7.9-6.9WSW29.89-- 49.8----
2024-07-15 01:00 am- 15.5 19.4----29.88+0.01- 49.8----
2024-07-15 12:50 am- 11.7 17.5 8.2 86.8WSW29.88-- 49.8----
2024-07-15 12:40 am- 9.7 13.6 8.2-6.8WSW29.89-- 49.8----
2024-07-15 12:30 am- 11.7 13.6----29.89-- 50.0----
2024-07-15 12:20 am- 11.7 13.6 7.5 86.6WSW29.88-- 50.0----
2024-07-15 12:10 am- 9.7 13.6 7.5-6.6WSW29.89-- 50.0----
2024-07-15 12:00 am- 9.7 15.5----29.89+0.03- 50.0----
2024-07-14 11:50 pm- 11.7 15.5 8.2 86.7WSW29.89-- 50.0----
2024-07-14 11:40 pm- 11.7 15.5 8.2-6.7WSW29.89-- 50.0----
2024-07-14 11:30 pm- 11.7 15.5----29.89-- 50.0----
2024-07-14 11:20 pm- 11.7 15.5 8.5 106.8WSW29.89-- 50.0----
2024-07-14 11:10 pm- 11.7 15.5 8.5-6.8WSW29.88-- 50.0----
2024-07-14 11:00 pm- 11.7 15.5----29.88+0.01- 50.0----
2024-07-14 10:50 pm- 11.7 15.5 8.5 96.8WSW29.88-- 50.0----
2024-07-14 10:40 pm- 11.7 15.5 8.5-6.8WSW29.88-- 50.0----
2024-07-14 10:30 pm- 9.7 15.5----29.87-- 50.0----
2024-07-14 10:20 pm- 9.7 13.6 8.2 106.9 W29.87-- 50.0----
2024-07-14 10:10 pm- 9.7 13.6 8.2-6.9 W29.87-- 50.0----
2024-07-14 10:00 pm- 9.7 13.6----29.87+0.00- 50.0----
2024-07-14 09:50 pm- 9.7 13.6 9.2 97.1WSW29.87-- 50.0----
2024-07-14 09:40 pm- 7.8 13.6----29.87-- 50.0----
2024-07-14 09:30 pm- 7.8 11.7----29.87-- 50.0----
2024-07-14 09:20 pm- 9.7 13.6 9.2 107.1WSW29.86-- 50.0----
2024-07-14 09:10 pm- 9.7 13.6 9.2-7.1WSW29.86-- 50.0----
2024-07-14 09:00 pm- 9.7 13.6----29.86+0.00- 50.0----
2024-07-14 08:50 pm- 9.7 13.6 8.9 86.8WSW29.86-- 50.0----
2024-07-14 08:40 pm- 11.7 15.5 8.9-6.8WSW29.86-- 50.0----
2024-07-14 08:30 pm- 13.6 17.5----29.86-- 50.0----
2024-07-14 08:20 pm- 13.6 19.4 9.2 97.0WSW29.86-- 50.0----
2024-07-14 08:10 pm- 13.6 19.4 9.2-7.0WSW29.87-- 50.0----
2024-07-14 08:00 pm- 13.6 19.4----29.87+0.00- 50.0----
2024-07-14 07:50 pm- 13.6 19.4 9.2 97.0WSW29.87-- 50.0----
2024-07-14 07:40 pm- 15.5 19.4 9.2-7.0WSW29.87-- 50.2----
2024-07-14 07:30 pm- 15.5 19.4----29.87-- 50.2----
2024-07-14 07:20 pm- 15.5 19.4 9.2 106.9WSW29.87-- 50.2----
2024-07-14 07:10 pm- 13.6 19.4 9.2-6.9WSW29.87-- 50.2----
2024-07-14 07:00 pm- 15.5 21.4----29.87+0.00- 50.2----
2024-07-14 06:50 pm- 17.5 21.4 9.2 86.9WSW29.87-- 50.2----

Detailed Wave Summary
for 46075 as of
(7:10 pm AKDT on 07/15/2024)
0310 GMT on 07/16/2024:

These wave data are displayed in rounded times.

     

Click on the graph icon in the table below to see a time series plot of the last five days of that observation.

5-day plot - Significant Wave Height Significant Wave Height (WVHT): 5.2 ft
5-day plot - Swell Height Swell Height (SwH): 2.6 ft
5-day plot - Swell Period Swell Period (SwP): 9.1 sec
5-day plot - Swell Direction Swell Direction (SwD):WSW
5-day plot - Wind Wave Height Wind Wave Height (WWH): 4.6 ft
5-day plot - Wind Wave Period Wind Wave Period (WWP): 5.9 sec
5-day plot - Wind Wave Direction Wind Wave Direction (WWD):WSW
5-day plot - Wave Steepness Wave Steepness (STEEPNESS):VERY_STEEP
5-day plot - Average Wave Period Average Wave Period (APD): 5.4 sec
Previous observations
TIME
(AKDT)
5-day plot - Wave Height
WVHT
ft
5-day plot - Swell Height
SwH
ft
5-day plot - Swell Period
SwP
sec
5-day plot - Swell Direction
SwD
 
5-day plot - Wind Wave Height
WWH
ft
5-day plot - Wind Wave Period
WWP
sec
5-day plot - Wind Wave Direction
WWD
 
5-day plot - Wave Steepness
STEEPNESS
 
5-day plot - Average Wave Period
APD
sec
2024-07-15 06:40 pm 5.2 2.6 10.0WSW 4.6 5.6 WSWVERY_STEEP 5.4
2024-07-15 06:10 pm 5.2 2.6 9.1WSW 4.6 6.7 WSW STEEP 5.6
2024-07-15 05:40 pm 4.9 2.3 9.1 SW 4.3 5.3 WSWVERY_STEEP 5.4
2024-07-15 05:10 pm 4.9 3.0 9.1WSW 3.9 6.2 WSW STEEP 5.5
2024-07-15 04:40 pm 4.9 3.0 10.0WSW 3.9 5.9 WSW AVERAGE 5.5
2024-07-15 04:10 pm 4.9 2.3 9.1 SW 4.3 6.2 WSW STEEP 5.2
2024-07-15 03:40 pm 4.9 3.3 9.1WSW 3.9 6.7 WSW STEEP 5.4
2024-07-15 03:10 pm 4.9 3.0 10.0 W 3.9 6.7 WSW STEEP 5.5
2024-07-15 02:40 pm 4.9 3.6 8.3WSW 3.3 6.2 W AVERAGE 5.6
2024-07-15 02:10 pm 5.2 3.3 7.7 W 4.3 6.7 WSW AVERAGE 5.7
2024-07-15 01:40 pm 5.6 3.9 7.1 W 3.6 4.8 W STEEP 5.9
2024-07-15 01:10 pm 5.6 4.3 7.7 W 3.6 6.7 W STEEP 6.2
2024-07-15 12:40 pm 5.9 4.3 10.0WSW 3.9 6.2 WSW SWELL 6.1
2024-07-15 12:10 pm 5.9 5.2 10.0WSW 2.6 4.5 W SWELL 6.1
2024-07-15 11:40 am 5.9 5.2 7.1WSW 2.6 4.8 W STEEP 6.1
2024-07-15 11:10 am 6.2 5.6 10.0WSW 3.0 5.3 WSW SWELL 6.4
2024-07-15 10:40 am 6.2 5.2 10.0WSW 3.3 6.2 WSW SWELL 6.4
2024-07-15 10:10 am 6.2 5.2 10.0WSW 3.6 6.2 WSW SWELL 6.4
2024-07-15 09:40 am 6.2 5.2 8.3 W 3.6 5.3 WSW AVERAGE 6.3
2024-07-15 09:10 am 6.2 4.9 8.3WSW 3.9 6.2 WSW AVERAGE 6.5
2024-07-15 08:40 am 5.9 4.9 10.8WSW 3.6 6.2 WSW SWELL 6.4
2024-07-15 08:10 am 6.2 5.6 10.0WSW 3.3 6.2 WSW SWELL 6.7
2024-07-15 07:40 am 6.2 5.6 8.3WSW 3.0 5.6 WSW AVERAGE 6.3
2024-07-15 07:10 am 6.2 5.6 9.1WSW 2.6 4.8 WSW AVERAGE 6.5
2024-07-15 06:40 am 5.9 5.2 10.0WSW 2.6 5.0 SW SWELL 6.5
2024-07-15 06:10 am 5.6 4.9 7.7 W 2.6 4.3 WSW STEEP 6.4
2024-07-15 05:40 am 6.2 5.6 10.8 W 3.0 4.8 WSW SWELL 6.4
2024-07-15 05:10 am 6.6 5.6 7.7WSW 3.3 5.3 WSW STEEP 6.4
2024-07-15 04:40 am 6.2 4.3 8.3WSW 4.6 7.1 W STEEP 6.3
2024-07-15 04:10 am 6.9 4.3 10.0WSW 5.6 7.1 WSW STEEP 6.4
2024-07-15 03:40 am 6.2 4.6 8.3WSW 4.3 6.7 W AVERAGE 6.3
2024-07-15 03:10 am 7.2 5.6 7.7WSW 4.6 5.6 W STEEP 6.5
2024-07-15 02:40 am 6.9 5.9 8.3WSW 3.9 5.9 WSW AVERAGE 6.4
2024-07-15 02:10 am 6.9 5.9 7.7 W 3.9 5.0 WSW STEEP 6.4
2024-07-15 01:40 am 7.2 6.2 7.1WSW 3.6 5.9 WSW STEEP 6.6
2024-07-15 01:10 am 7.9 7.2 10.0WSW 3.3 5.6 W AVERAGE 6.9
2024-07-15 12:40 am 8.2 7.5 7.7WSW 3.6 5.3 WSW STEEP 6.8
2024-07-15 12:10 am 7.5 6.9 8.3WSW 3.0 4.2 WSW STEEP 6.6
2024-07-14 11:40 pm 8.2 7.2 8.3WSW 3.9 5.3 WSW STEEP 6.7
2024-07-14 11:10 pm 8.5 7.9 10.0WSW 3.3 3.7 WSW AVERAGE 6.8
2024-07-14 10:40 pm 8.5 7.5 9.1WSW 3.6 5.6 WSW AVERAGE 6.8
2024-07-14 10:10 pm 8.2 8.2 10.0 W 2.0 4.0 W AVERAGE 6.9
2024-07-14 09:40 pm 9.2 8.9 9.1WSW 2.0 4.0 WSW AVERAGE 7.1
2024-07-14 09:10 pm 9.2 9.2 10.0WSW 2.3 3.8 WSW AVERAGE 7.1
2024-07-14 08:40 pm 8.9 8.5 8.3WSW 2.3 3.7 SW STEEP 6.8
2024-07-14 08:10 pm 9.2 7.9 9.1WSW 4.9 5.3 SW AVERAGE 7.0
2024-07-14 07:40 pm 9.2 7.5 9.1WSW 5.6 5.3 WSW AVERAGE 7.0
2024-07-14 07:10 pm 9.2 7.2 10.0WSW 5.9 5.9 SW AVERAGE 6.9

Plot of wave energy versus frequency (and period)